Regional Weather Roundup
Issued by NWS

Home | Current Version | Previous Version | Graphics & Text | Print | Product List | Glossary On
Versions: 1 2 3 4 5 6 7 8 9 10 11 12 13 14 15 16 17 18 19 20 21 22 23 24 25 26 27 28 29 30 31 32 33 34 35 36 37 38 39 40 41 42 43 44 45 46 47 48 49 50
000
ASUS43 KLOT 060208
RWRIL

ILLINOIS REGIONAL WEATHER ROUNDUP
NATIONAL WEATHER SERVICE CHICAGO/ROMEOVILLE IL
800 PM CST FRI FEB 05 2016

NOTE: "FAIR" INDICATES FEW OR NO CLOUDS BELOW 12,000 FEET WITH NO
SIGNIFICANT WEATHER AND/OR OBSTRUCTIONS TO VISIBILITY.

* THESE STATIONS ARE NOT UNDER NWS QUALITY CONTROL. THEY ALSO MAY NOT
  REPORT WEATHER SUCH AS PRECIPITATION OR FOG.

ILZ001-002-007-009-015-016-024-060300-
NORTHWEST ILLINOIS

CITY           SKY/WX    TMP DP  RH WIND       PRES   REMARKS
MOLINE         CLOUDY    28  21  75 CALM      30.33F
STERLING*      CLOUDY    30  21  69 CALM      30.31F
SAVANNA*       CLOUDY    29  24  81 CALM      30.33F
$$

ILZ003-004-008-010-011-017-018-060300-
NORTH CENTRAL ILLINOIS

CITY           SKY/WX    TMP DP  RH WIND       PRES   REMARKS
ROCKFORD       CLOUDY    29  21  72 SW5       30.35F WCI  24
FREEPORT*      CLOUDY    28  22  78 SW6       30.34F WCI  22
ROCHELLE*      CLOUDY    29  24  81 S7        30.34F WCI  22
DE KALB*       CLOUDY    28  22  77 SW5       30.34F WCI  23
PERU*          PTCLDY    30  25  83 SE5       30.35F WCI  25
$$

ILZ005-006-012>014-019>023-060300-
NORTHEAST ILLINOIS

CITY           SKY/WX    TMP DP  RH WIND       PRES   REMARKS
CHICAGO-OHARE  CLOUDY    29  21  72 W7        30.34R WCI  22
CHICAGO-MIDWAY CLOUDY    31  20  63 SW8       30.35R WCI  23
AURORA         CLOUDY    30  23  75 S6        30.35S WCI  24
LANSING*       CLEAR     28  23  82 W3        30.36R
JOLIET*        CLOUDY    30  24  78 SW3       30.37S
WAUKEGAN       CLOUDY    29  20  69 W3        30.32S
DUPAGE AIRPORT CLOUDY    29  21  72 SW7       30.34R WCI  22
KANKAKEE*      PTCLDY    27  23  85 W5        30.38S WCI  22
WHEELING       CLOUDY    30  19  63 W5        30.35S WCI  25
MORRIS*        MOCLDY    27  24  86 SW5       30.35S WCI  22
ROMEOVILLE*    CLOUDY    29  22  76 W7        30.36R WCI  22
NORTHERLY ISL    N/A     31  20  63 W6          N/A  WCI  25
$$

LMZ740>746-060300-
SOUTHERN LAKE MICHIGAN

STATION/POSITION SKY/WX   TEMP    WIND        PRES    VSBY  WAVE
                          AIR SEA DIR/SP/G                  HT/PER
                          (F)     (DEG/KT/KT) (MB)    (MI)  (FT/S)
HARRISON CRIB              31     120/  5/  6   N/A
BURNHAM HARBOR             31     270/  8       N/A
CALUMET HARBOR             31     210/  3/  4 1026.6F
BURNS HARBOR               30     210/  2/  2 1028.1F
MICHIGAN CITY              30     110/  1/  2   N/A
$$

ILZ025>027-034>036-040-047-049-050-058-095>099-060300-
WEST-CENTRAL ILLINOIS

CITY           SKY/WX    TMP DP  RH WIND       PRES   REMARKS
QUINCY         CLEAR     30  20  66 E5        30.33F WCI  25
GALESBURG*     CLOUDY    27  24  87 S3        30.35S
MACOMB*        CLEAR     28  25  89 CALM      30.37F
JACKSONVILLE*  PTCLDY    28  24  84 E6        30.35F WCI  22
PITTSFIELD*    PTCLDY    29  17  62 CALM      30.36S
$$

ILZ028>032-037-038-041>044-048-051>054-059>061-060300-
CENTRAL ILLINOIS

CITY           SKY/WX    TMP DP  RH WIND       PRES   REMARKS
PONTIAC        CLEAR     27  25  91 CALM      30.38F
BLOOMINGTON    CLEAR     26  23  88 SE3       30.36F
DECATUR        CLEAR     27  22  81 E3        30.37F
PEORIA         MOCLDY    28  20  71 CALM      30.35F
LACON*         PTCLDY    27  21  77 E7        30.33F WCI  20
LINCOLN*       CLEAR     27  25  91 CALM      30.36F
SPRINGFIELD    CLEAR     28  20  71 E3        30.36F
TAYLORVILLE    CLOUDY    28  25  86 CALM      30.37F
$$

ILZ033-039-045-046-055>057-062-063-060300-
EAST-CENTRAL ILLINOIS

CITY           SKY/WX    TMP DP  RH WIND       PRES   REMARKS
CHAMPAIGN      CLOUDY    27  24  89 W3        30.38R
RANTOUL*       MOCLDY    28  26  89 CALM      30.38R
MATTOON        CLEAR     26  22  84 CALM      30.37S FOG
PARIS*         CLEAR     26  24  90 CALM      30.39R
$$

ILZ079-100>102-060300-
SOUTHWEST ILLINOIS

CITY           SKY/WX    TMP DP  RH WIND       PRES   REMARKS
BELLEVILLE     CLEAR     28  20  69 E2        30.35F
CAHOKIA*       CLEAR     32  19  58 CALM      30.36F
SPARTA*        CLOUDY    32  22  67 E5        30.37F WCI  27
$$

ILZ064>066-069>071-074>076-080>082-084>086-088>090-092>094-060300-
SOUTH-CENTRAL ILLINOIS

CITY           SKY/WX    TMP DP  RH WIND       PRES   REMARKS
CARBONDALE     CLEAR     33  22  63 NE6       30.36F WCI  28
CAIRO*         CLEAR     35  28  73 CALM      30.35S
EFFINGHAM*     CLEAR     28  26  92 CALM      30.40S
MARION         CLEAR     32  27  80 NE3       30.37S
MT. VERNON     CLEAR     27  18  69 CALM      30.37F
CENTRALIA*     PTCLDY    30  23  77 CALM      30.37S
SALEM*         CLEAR     28  23  81 CALM      30.37S
METROPOLIS*    CLEAR     32  26  78 CALM      30.37R
$$

ILZ067-068-072-073-078-083-087-091-060300-
SOUTHEAST ILLINOIS

CITY           SKY/WX    TMP DP  RH WIND       PRES   REMARKS
LAWRENCEVILLE  CLEAR     28  22  78 N6        30.38S WCI  22
FLORA*         CLEAR     30  23  74 CALM      30.38F
FAIRFIELD*     CLEAR     32  22  67 CALM      30.36F
HARRISBURG*    CLEAR     31  26  83 CALM      30.38S
ROBINSON*      CLEAR     26  23  87 N3        30.41R
CARMI*         CLEAR     34  26  72 N7        30.37S WCI  27
$$

ABBREVIATIONS USED IN REMARKS
   TC - TEMPERATURE IN CELSIUS
  WCI - WIND CHILL INDEX
   HX - HEAT INDEX
  VSB - VISIBILITY
$$




USA.gov is the U.S. government's official web portal to all federal, state and local government web resources and services.